W7KKE-3 Weather Reports


Display with metric or nautical units.
time (UTC)temp
F
wind
direction
speed
MPH
gust
MPH
rain 1hr
in
rain 24hr
in
rain mn
in
humidity
%
barometer
mb
20141001180247 68 306 3.0 7.0 0.00 0.09 0.01 78 1023.7
20141001175747 68 288 5.0 7.0 0.00 0.09 0.01 78 1023.7
20141001175247 68 319 3.0 6.0 0.00 0.09 0.01 79 1023.7
20141001174748 68 291 1.0 6.0 0.00 0.09 0.01 80 1023.8
20141001174247 67 260 3.0 6.0 0.00 0.09 0.01 80 1023.8
20141001172749 66 0 0.0 0.0 0.00 0.09 0.01 82 1023.9
20141001172247 66 0 0.0 0.0 0.00 0.09 0.01 83 1023.9
20141001171748 65 0 0.0 4.0 0.00 0.09 0.01 84 1023.9
20141001171247 64 270 0.0 4.0 0.00 0.09 0.01 86 1024.0
20141001165747 61 0 0.0 3.0 0.00 0.09 0.01 89 1023.9
20141001165247 60 84 0.0 3.0 0.00 0.09 0.01 89 1023.9
20141001164747 60 100 2.0 3.0 0.00 0.09 0.01 88 1023.9
20141001164247 59 0 0.0 0.0 0.00 0.09 0.01 91 1024.0
20141001163747 59 0 0.0 0.0 0.00 0.09 0.01 92 1024.1
20141001163247 58 0 0.0 0.0 0.00 0.09 0.01 93 1024.1
20141001162747 57 0 0.0 0.0 0.00 0.09 0.01 94 1024.1
20141001162247 56 0 0.0 0.0 0.00 0.09 0.01 95 1024.2
20141001161747 56 0 0.0 4.0 0.00 0.09 0.01 95 1024.2
20141001161247 55 0 0.0 4.0 0.00 0.09 0.01 95 1024.3
20141001160747 54 110 0.0 4.0 0.00 0.09 0.01 95 1024.2
20141001160247 54 0 0.0 4.0 0.00 0.09 0.01 95 1024.3
20141001155748 53 56 0.0 4.0 0.00 0.09 0.01 95 1024.4
20141001155247 53 99 0.0 4.0 0.00 0.09 0.01 95 1024.5
20141001154747 53 0 0.0 0.0 0.00 0.09 0.01 95 1024.5
20141001154247 53 0 0.0 0.0 0.00 0.09 0.01 95 1024.4
20141001153747 53 23 0.0 6.0 0.00 0.09 0.01 95 1024.4
20141001153247 52 82 0.0 6.0 0.00 0.09 0.01 95 1024.5
20141001152747 52 123 0.0 6.0 0.00 0.09 0.01 95 1024.5
20141001152247 52 72 0.0 6.0 0.00 0.09 0.01 95 1024.6
20141001151747 52 78 0.0 6.0 0.00 0.09 0.01 95 1024.6
20141001151247 52 82 0.0 4.0 0.00 0.09 0.01 95 1024.6
20141001150748 52 0 0.0 0.0 0.00 0.09 0.01 95 1024.7
20141001150247 51 0 0.0 0.0 0.00 0.09 0.01 95 1024.7
20141001145747 51 0 0.0 0.0 0.00 0.09 0.01 95 1024.8
20141001145247 51 0 0.0 0.0 0.00 0.09 0.01 95 1024.8
20141001144748 51 0 0.0 3.0 0.00 0.09 0.01 95 1024.7
20141001144247 51 54 0.0 3.0 0.00 0.09 0.01 95 1024.7
20141001143747 51 57 0.0 3.0 0.00 0.09 0.01 95 1024.6
20141001143247 52 56 0.0 3.0 0.00 0.09 0.01 95 1024.7
20141001142748 52 0 0.0 0.0 0.00 0.09 0.01 95 1024.7
20141001142247 52 37 0.0 5.0 0.00 0.09 0.01 95 1024.7
20141001141748 52 58 0.0 5.0 0.00 0.09 0.01 95 1024.6
20141001141247 52 82 1.0 5.0 0.00 0.09 0.01 95 1024.6
20141001140747 52 61 0.0 4.0 0.00 0.09 0.01 95 1024.5
20141001140247 52 71 0.0 4.0 0.01 0.09 0.01 95 1024.5
20141001135747 52 88 2.0 3.0 0.01 0.09 0.01 95 1024.5
20141001135247 52 0 0.0 0.0 0.01 0.09 0.01 95 1024.6
20141001134747 52 70 0.0 5.0 0.01 0.09 0.01 95 1024.6
20141001134248 52 78 0.0 5.0 0.01 0.09 0.01 95 1024.5
20141001133747 52 102 2.0 5.0 0.01 0.09 0.01 95 1024.5
20141001133247 52 91 0.0 5.0 0.01 0.09 0.01 95 1024.5
20141001132747 52 84 1.0 5.0 0.01 0.09 0.01 95 1024.5
20141001132247 52 103 2.0 6.0 0.01 0.09 0.01 95 1024.4
20141001131748 52 68 0.0 6.0 0.01 0.09 0.01 95 1024.4
20141001131247 52 98 2.0 6.0 0.01 0.09 0.01 95 1024.3
20141001130749 52 0 4.0 4.0 0.01 0.09 0.01 95 1024.2
20141001130247 52 0 0.0 0.0 0.00 0.08 0.00 94 1024.1
20141001125747 52 0 0.0 5.0 0.00 0.08 0.00 94 1024.1
20141001125247 52 0 0.0 5.0 0.00 0.08 0.00 94 1024.1
20141001124747 52 91 0.0 5.0 0.00 0.08 0.00 94 1024.0
20141001124247 52 84 1.0 5.0 0.00 0.08 0.00 94 1024.1
20141001123747 52 91 0.0 6.0 0.00 0.08 0.00 94 1023.9
20141001123247 53 70 1.0 6.0 0.00 0.08 0.00 94 1024.0
20141001122749 53 92 0.0 6.0 0.00 0.08 0.00 94 1023.9
20141001122247 53 91 2.0 6.0 0.00 0.08 0.00 94 1023.9
20141001121748 53 96 2.0 6.0 0.00 0.08 0.00 94 1023.9
20141001121247 53 85 0.0 6.0 0.00 0.08 0.00 94 1023.8
20141001120747 53 71 0.0 3.0 0.00 0.08 0.00 94 1023.8
20141001120247 53 70 0.0 3.0 0.00 0.16 0.00 94 1023.7
20141001115747 53 0 0.0 0.0 0.00 0.16 0.00 94 1023.7
20141001115247 53 82 0.0 5.0 0.00 0.16 0.00 94 1023.8
20141001114747 53 96 2.0 5.0 0.00 0.16 0.00 94 1023.8
20141001114247 53 114 1.0 5.0 0.00 0.16 0.00 94 1023.9
20141001113748 53 0 0.0 0.0 0.00 0.16 0.00 94 1023.9
20141001113247 53 92 0.0 7.0 0.00 0.16 0.00 94 1024.0
20141001112747 53 95 0.0 7.0 0.00 0.16 0.00 94 1024.0
20141001112247 53 100 1.0 7.0 0.00 0.16 0.00 94 1024.1
20141001111748 53 103 1.0 6.0 0.00 0.16 0.00 94 1024.1
20141001111247 53 92 3.0 6.0 0.00 0.16 0.00 94 1024.0
20141001110748 53 96 3.0 8.0 0.00 0.16 0.00 94 1024.0
20141001110247 53 99 3.0 8.0 0.00 0.16 0.00 94 1024.0
20141001105747 53 89 4.0 8.0 0.00 0.16 0.00 94 1024.1
20141001105247 53 112 2.0 6.0 0.00 0.16 0.00 94 1024.0
20141001104748 54 100 3.0 6.0 0.00 0.16 0.00 94 1023.9
20141001104247 54 89 4.0 6.0 0.00 0.16 0.00 94 1023.9
20141001103747 54 96 4.0 6.0 0.00 0.16 0.00 94 1023.9
20141001103247 54 89 4.0 6.0 0.00 0.16 0.00 94 1023.9
20141001102748 54 89 4.0 6.0 0.00 0.16 0.00 94 1023.9
20141001102247 54 92 3.0 6.0 0.00 0.16 0.00 94 1023.9
20141001101747 54 91 4.0 6.0 0.00 0.16 0.00 94 1023.8
20141001101247 54 81 2.0 5.0 0.00 0.16 0.00 94 1023.9
20141001100748 54 112 2.0 6.0 0.00 0.16 0.00 94 1023.9
20141001100247 54 88 3.0 6.0 0.00 0.18 0.00 94 1023.9
20141001095747 54 96 3.0 6.0 0.00 0.18 0.00 94 1024.0
20141001095247 54 57 3.0 6.0 0.00 0.18 0.00 93 1023.9
20141001094747 54 60 3.0 6.0 0.00 0.18 0.00 93 1024.0
20141001094247 54 60 5.0 6.0 0.00 0.18 0.00 93 1024.0
20141001093747 54 58 3.0 5.0 0.00 0.18 0.00 93 1023.9
20141001093247 54 58 2.0 5.0 0.00 0.18 0.00 93 1023.8
20141001092747 54 58 3.0 5.0 0.00 0.18 0.00 93 1023.8
20141001092247 54 57 3.0 5.0 0.00 0.18 0.00 93 1023.7
20141001091747 54 57 1.0 6.0 0.00 0.18 0.00 93 1023.7
20141001091247 55 60 1.0 6.0 0.00 0.18 0.00 93 1023.7
20141001090747 55 58 3.0 6.0 0.00 0.18 0.00 93 1023.8
20141001090247 55 58 2.0 5.0 0.00 0.18 0.00 93 1023.7
20141001084748 55 58 2.0 5.0 0.00 0.18 0.00 93 1023.3
20141001084247 55 58 2.0 5.0 0.00 0.18 0.00 93 1023.2
20141001083747 55 58 2.0 5.0 0.00 0.18 0.00 93 1023.2
20141001083247 55 60 2.0 5.0 0.00 0.18 0.00 92 1023.3
20141001082748 55 107 3.0 7.0 0.00 0.18 0.00 92 1023.3
20141001082247 55 100 3.0 7.0 0.00 0.18 0.00 92 1023.4
20141001080747 56 75 5.0 5.0 0.00 0.18 0.00 92 1023.1
20141001080248 56 78 0.0 5.0 0.01 0.20 0.00 92 1023.0
20141001075747 56 72 0.0 5.0 0.01 0.20 0.00 92 1023.0
20141001075247 56 78 0.0 5.0 0.01 0.20 0.00 92 1022.9
20141001074748 56 78 2.0 5.0 0.01 0.20 0.00 92 1022.9
20141001074247 56 0 0.0 2.0 0.01 0.20 0.00 92 1022.7
20141001073748 56 60 0.0 2.0 0.01 0.20 0.00 92 1022.8
20141001073247 56 0 0.0 0.0 0.01 0.20 0.00 91 1022.7
20141001072747 56 0 0.0 0.0 0.01 0.20 0.00 91 1022.7
20141001070747 56 0 0.0 0.0 0.01 0.20 0.00 91 1022.8
20141001070247 56 0 0.0 0.0 0.00 0.19 0.00 91 1022.9
20141001065747 57 0 0.0 0.0 0.00 0.19 0.19 91 1022.9
20141001063247 57 0 0.0 0.0 0.03 0.19 0.19 90 1023.0
20141001062748 58 0 0.0 0.0 0.03 0.19 0.19 90 1022.9
20141001062247 58 0 0.0 7.0 0.03 0.19 0.19 90 1022.8
20141001061747 58 0 0.0 7.0 0.03 0.19 0.19 90 1022.8
20141001061247 58 105 0.0 7.0 0.03 0.19 0.19 90 1022.7
20141001060748 58 326 4.0 6.0 0.03 0.19 0.19 90 1022.8
20141001060248 58 23 0.0 6.0 0.03 0.19 0.19 90 1022.7
20141001055747 58 0 0.0 0.0 0.03 0.19 0.19 90 1022.7
20141001055247 58 0 0.0 0.0 0.03 0.19 0.19 90 1022.6
20141001054747 58 0 0.0 0.0 0.03 0.19 0.19 90 1022.6
20141001054247 58 0 0.0 0.0 0.04 0.19 0.19 90 1022.6
20141001053747 58 0 0.0 0.0 0.04 0.19 0.19 89 1022.7
20141001053247 58 0 0.0 0.0 0.01 0.18 0.18 89 1022.6
20141001052747 58 0 0.0 0.0 0.01 0.16 0.16 89 1022.6
20141001052247 58 0 0.0 0.0 0.01 0.16 0.16 89 1022.5
20141001050247 58 54 0.0 3.0 0.02 0.16 0.16 88 1022.6
20141001045747 59 0 0.0 0.0 0.02 0.16 0.16 88 1022.6
20141001045247 59 50 0.0 5.0 0.02 0.16 0.16 88 1022.7
20141001044747 59 58 0.0 5.0 0.02 0.16 0.16 88 1022.7
20141001044248 59 64 1.0 5.0 0.01 0.15 0.15 88 1022.8
20141001043748 59 299 0.0 3.0 0.01 0.15 0.15 88 1022.9
20141001043247 60 47 0.0 4.0 0.01 0.15 0.15 88 1022.9
20141001042747 60 51 0.0 4.0 0.01 0.15 0.15 88 1023.0
20141001042247 60 75 0.0 4.0 0.01 0.15 0.15 88 1023.1
20141001041747 60 0 0.0 0.0 0.01 0.15 0.15 87 1023.2
20141001041247 60 0 0.0 0.0 0.00 0.15 0.15 87 1023.2
20141001040748 60 0 0.0 0.0 0.00 0.14 0.14 87 1023.1
20141001040247 60 0 0.0 0.0 0.00 0.14 0.14 86 1023.1
20141001035747 60 0 0.0 5.0 0.00 0.14 0.14 86 1023.0
20141001035247 60 0 0.0 5.0 0.00 0.14 0.14 86 1023.0
20141001033246 61 336 0.0 5.0 0.00 0.14 0.14 85 1022.6
20141001032747 61 0 0.0 0.0 0.00 0.14 0.14 85 1022.5
20141001032246 61 323 0.0 10.0 0.00 0.14 0.14 85 1022.4
20141001031756 61 315 3.0 10.0 0.00 0.14 0.14 85 1022.4
20141001031246 61 301 6.0 10.0 0.00 0.14 0.14 85 1022.4
20141001030747 61 319 5.0 10.0 0.00 0.14 0.14 85 1022.4
20141001030247 61 295 5.0 10.0 0.00 0.14 0.14 85 1022.4
20141001025747 61 327 6.0 10.0 0.00 0.14 0.14 85 1022.5
20141001025246 61 331 4.0 6.0 0.00 0.14 0.14 84 1022.3
20141001024747 61 348 2.0 9.0 0.00 0.14 0.14 84 1022.2
20141001024246 62 347 3.0 9.0 0.00 0.14 0.14 84 1022.1
20141001023746 62 338 5.0 9.0 0.00 0.14 0.14 84 1022.1
20141001023246 62 331 3.0 8.0 0.00 0.14 0.14 83 1022.0
20141001022746 62 326 5.0 8.0 0.00 0.14 0.14 83 1021.8
20141001022246 62 302 4.0 11.0 0.00 0.14 0.14 83 1021.9
20141001021746 62 333 5.0 11.0 0.00 0.14 0.14 83 1021.9
20141001021246 62 338 6.0 11.0 0.00 0.14 0.14 83 1021.8
20141001020747 62 334 6.0 9.0 0.00 0.14 0.14 83 1021.8
20141001020246 63 337 7.0 11.0 0.00 0.16 0.14 82 1021.9
20141001015747 63 294 6.0 11.0 0.00 0.16 0.14 82 1021.9
20141001015246 63 288 6.0 11.0 0.00 0.16 0.14 82 1021.9
20141001014746 63 299 6.0 12.0 0.00 0.16 0.14 82 1021.9
20141001014246 63 292 6.0 12.0 0.00 0.16 0.14 82 1021.9
20141001013746 63 320 6.0 12.0 0.00 0.16 0.14 81 1021.8
20141001013247 64 298 7.0 11.0 0.00 0.16 0.14 81 1021.8
20141001012746 64 287 7.0 11.0 0.00 0.16 0.14 81 1021.8
20141001012246 64 282 7.0 11.0 0.00 0.16 0.14 81 1021.8
20141001011746 64 315 8.0 10.0 0.00 0.16 0.14 81 1021.8
20141001011246 64 310 6.0 9.0 0.00 0.16 0.14 81 1021.9
20141001010746 64 288 6.0 11.0 0.00 0.16 0.14 80 1021.9
20141001010246 64 294 7.0 11.0 0.00 0.16 0.14 80 1021.9
20141001005747 64 312 6.0 11.0 0.00 0.16 0.14 80 1022.0
20141001005246 64 296 3.0 10.0 0.00 0.16 0.14 80 1022.0
20141001004748 64 289 8.0 11.0 0.00 0.16 0.14 80 1022.0
20141001004246 65 299 5.0 11.0 0.00 0.16 0.14 79 1022.0
20141001003746 65 305 8.0 11.0 0.00 0.16 0.14 79 1021.9
20141001003246 65 319 7.0 10.0 0.00 0.16 0.14 79 1021.9
20141001002746 65 296 7.0 12.0 0.00 0.16 0.14 79 1021.9
20141001002246 65 306 7.0 12.0 0.00 0.16 0.14 79 1021.8
20141001001747 65 312 9.0 12.0 0.00 0.16 0.14 79 1021.8
20141001001247 66 289 9.0 11.0 0.00 0.16 0.14 79 1021.8
20141001000747 66 284 6.0 11.0 0.00 0.16 0.14 78 1021.8
20141001000247 66 298 7.0 11.0 0.00 0.16 0.14 78 1021.8
20140930235746 66 319 9.0 11.0 0.00 0.16 0.14 78 1021.8
20140930235246 67 326 7.0 10.0 0.00 0.16 0.14 77 1021.7
20140930234746 67 302 8.0 10.0 0.00 0.16 0.14 77 1021.7
20140930234246 67 308 5.0 9.0 0.00 0.16 0.14 77 1021.6
20140930233746 67 303 6.0 10.0 0.00 0.16 0.14 77 1021.6
20140930233246 68 317 7.0 10.0 0.00 0.16 0.14 76 1021.6
20140930232746 68 308 6.0 10.0 0.00 0.16 0.14 76 1021.6
20140930232246 68 309 8.0 9.0 0.00 0.16 0.14 77 1021.6
20140930231746 68 309 6.0 8.0 0.00 0.16 0.14 76 1021.6
20140930231246 67 316 6.0 8.0 0.00 0.16 0.14 77 1021.7
20140930230746 67 281 6.0 8.0 0.00 0.16 0.14 77 1021.6
20140930230246 67 313 5.0 9.0 0.00 0.16 0.14 76 1021.6
20140930225746 68 306 5.0 9.0 0.00 0.16 0.14 77 1021.6
20140930225246 68 310 7.0 9.0 0.00 0.16 0.14 78 1021.7
20140930224746 68 316 7.0 9.0 0.00 0.16 0.14 78 1021.8
20140930224246 67 331 6.0 10.0 0.00 0.16 0.14 78 1021.8
20140930223746 68 310 6.0 10.0 0.00 0.16 0.14 77 1021.7
20140930223246 68 292 7.0 10.0 0.00 0.16 0.14 77 1021.7
20140930222747 68 291 6.0 10.0 0.00 0.16 0.14 78 1021.8
20140930222246 68 296 6.0 10.0 0.00 0.16 0.14 78 1021.7
20140930221746 67 294 7.0 10.0 0.00 0.16 0.14 77 1021.7
20140930221246 68 320 6.0 10.0 0.00 0.16 0.14 78 1021.7
20140930220746 68 306 7.0 10.0 0.00 0.16 0.14 78 1021.8
20140930220246 67 308 7.0 10.0 0.00 0.21 0.14 78 1021.8
20140930215746 67 278 6.0 9.0 0.00 0.21 0.14 79 1021.8
20140930215246 67 278 4.0 9.0 0.00 0.21 0.14 79 1021.9
20140930214746 67 280 5.0 8.0 0.00 0.21 0.14 79 1021.9
20140930214246 67 282 6.0 8.0 0.00 0.21 0.14 78 1021.9
20140930213747 68 277 7.0 8.0 0.00 0.21 0.14 79 1021.9
20140930213246 68 295 4.0 8.0 0.00 0.21 0.14 79 1021.9
20140930212746 68 271 5.0 8.0 0.00 0.21 0.14 79 1021.9
20140930212246 68 273 5.0 8.0 0.00 0.21 0.14 78 1021.9
20140930211746 68 273 4.0 8.0 0.00 0.21 0.14 79 1022.0
20140930211246 68 268 5.0 8.0 0.00 0.21 0.14 79 1022.0
20140930210746 68 302 3.0 8.0 0.00 0.21 0.14 80 1022.0
20140930210246 68 261 3.0 8.0 0.00 0.29 0.14 80 1022.1
20140930205746 68 288 5.0 8.0 0.00 0.29 0.14 80 1022.1
20140930205246 67 287 5.0 8.0 0.00 0.29 0.14 80 1022.1
20140930204747 67 268 4.0 8.0 0.00 0.29 0.14 80 1022.2
20140930204246 67 282 6.0 8.0 0.00 0.29 0.14 80 1022.2
20140930203746 67 280 6.0 8.0 0.00 0.29 0.14 81 1022.4
20140930203246 67 277 5.0 8.0 0.00 0.29 0.14 81 1022.3
20140930202746 67 287 6.0 7.0 0.00 0.29 0.14 81 1022.3
20140930202246 67 278 3.0 7.0 0.00 0.29 0.14 81 1022.3
20140930201748 67 268 4.0 7.0 0.00 0.29 0.14 81 1022.2
20140930201246 67 296 2.0 6.0 0.00 0.29 0.14 82 1022.2
20140930200746 67 274 2.0 6.0 0.00 0.29 0.14 82 1022.2
20140930200246 67 284 2.0 5.0 0.02 0.35 0.14 82 1022.0
20140930194246 66 292 2.0 5.0 0.02 0.35 0.14 83 1021.9
20140930192746 66 0 0.0 4.0 0.02 0.35 0.14 83 1022.0
20140930192246 66 0 0.0 4.0 0.02 0.35 0.14 82 1022.0
20140930191746 67 301 0.0 4.0 0.02 0.35 0.14 82 1022.0
20140930191246 67 275 0.0 8.0 0.02 0.35 0.14 82 1021.9
20140930190746 68 338 1.0 8.0 0.02 0.35 0.14 81 1022.0
20140930190246 69 319 6.0 8.0 0.00 0.36 0.13 80 1022.0
20140930185746 70 295 4.0 7.0 0.00 0.36 0.12 79 1021.9
20140930184746 70 275 3.0 7.0 0.00 0.36 0.12 80 1021.8
20140930184246 70 288 5.0 6.0 0.00 0.36 0.12 80 1021.7
20140930183746 70 312 5.0 6.0 0.00 0.36 0.12 79 1021.7
20140930183247 70 323 4.0 7.0 0.00 0.36 0.12 80 1021.7